Weather History for KLHQ - February, 2013

Change the Weather History Date:

Wednesday, February 13, 2013

  Actual Average Record
Temperature  
Mean Temperature 28 °F -  
Max Temperature 33 °F 36 °F 70 °F (1938)
Min Temperature 23 °F 15 °F -8 °F (1979)
Degree Days  
Heating Degree Days 37    
Moisture  
Dew Point 26 °F    
Average Humidity 87    
Maximum Humidity 93    
Minimum Humidity 75    
Precipitation  
Precipitation 0.08 in - - ()
Sea Level Pressure  
Sea Level Pressure 29.81 in    
Wind  
Wind Speed 3 mph (NW)    
Max Wind Speed 14 mph    
Max Gust Speed 22 mph    
Visibility 4 miles    
Events Fog , Snow    
Averages and records for this station are not official NWS values.
T = Trace of Precipitation, MM = Missing Value Source: NWS Daily Summary

Daily Weather History Graph

Daily Weather History Graph

Search for Another Location

Airport or City:

Trip Planner

Search our weather history database for the weather conditions in past years. The results will help you decide how hot, cold, wet, or windy it might be!

Date:

Astronomy

Feb. 13, 2013 Rise Set
Actual Time 7:25 AM EST 6:04 PM EST
Civil Twilight 6:57 AM EST 6:32 PM EST
Nautical Twilight 6:25 AM EST 7:04 PM EST
Astronomical Twilight 5:54 AM EST 7:35 PM EST
Moon 8:54 AM EST (2/13) 10:05 PM EST (2/13)
Length of Visible Light 11h 35m
Length of Day
10h 39m
Waxing Crescent, 13% of the Moon is Illuminated
Feb 13
Waxing Crescent
Feb 17
First Quarter
Feb 25
Full
Mar 4
Last Quarter
Mar 11
New

Hourly Weather History & Observations

Time (EST) Temp. Windchill Dew Point Humidity Pressure Visibility Wind Dir Wind Speed Gust Speed Precip Events Conditions
12:53 AM 28.0 °F - 23.0 °F 81% 29.92 in 10.0 mi Calm Calm - N/A   Clear
1:53 AM 27.0 °F - 24.1 °F 89% 29.90 in 10.0 mi Calm Calm - N/A   Clear
2:53 AM 25.0 °F - 21.0 °F 85% 29.89 in 10.0 mi Calm Calm - N/A   Clear
3:53 AM 27.0 °F - 23.0 °F 85% 29.88 in 10.0 mi Calm Calm - N/A   Clear
4:53 AM 28.9 °F - 25.0 °F 85% 29.87 in 9.0 mi Calm Calm - N/A   Clear
5:53 AM 28.0 °F 24.2 °F 25.0 °F 88% 29.85 in 8.0 mi North 3.5 mph - N/A   Scattered Clouds
6:53 AM 30.0 °F 25.2 °F 26.1 °F 85% 29.82 in 7.0 mi North 4.6 mph - N/A   Overcast
7:53 AM 30.9 °F 26.2 °F 26.1 °F 82% 29.79 in 5.0 mi NE 4.6 mph - N/A   Haze
8:53 AM 30.9 °F 26.2 °F 26.1 °F 82% 29.81 in 5.0 mi NNE 4.6 mph - N/A   Haze
9:53 AM 33.1 °F 28.7 °F 27.0 °F 78% 29.81 in 5.0 mi North 4.6 mph - N/A   Haze
10:53 AM 33.1 °F 26.9 °F 27.0 °F 78% 29.83 in 6.0 mi North 6.9 mph - N/A   Haze
11:53 AM 33.1 °F - 27.0 °F 78% 29.80 in 6.0 mi North - - N/A   Haze
12:51 PM 33.8 °F 27.7 °F 26.6 °F 75% 29.76 in 2.0 mi NNW 6.9 mph - 0.00 in Snow Light Snow
12:53 PM 33.1 °F 26.9 °F 27.0 °F 78% 29.78 in 2.0 mi North 6.9 mph - 0.00 in Snow Light Snow
1:09 PM 33.8 °F 27.0 °F 26.6 °F 75% 29.75 in 1.8 mi NNW 8.1 mph - 0.00 in Snow Light Snow
1:19 PM 32.0 °F 25.6 °F 28.4 °F 87% 29.75 in 0.8 mi NNW 6.9 mph - 0.00 in Snow Light Snow
1:36 PM 32.0 °F 26.4 °F 28.4 °F 87% 29.74 in 0.5 mi NNW 5.8 mph - 0.01 in Fog , Snow Snow
1:53 PM 30.9 °F 26.2 °F 28.9 °F 92% 29.77 in 0.5 mi NNW 4.6 mph - 0.02 in Fog , Snow Snow
2:11 PM 30.2 °F 26.7 °F 28.4 °F 93% 29.74 in 0.2 mi NW 3.5 mph - 0.02 in Fog , Snow Heavy Snow
2:22 PM 30.2 °F 24.3 °F 28.4 °F 93% 29.74 in 0.2 mi NNW 5.8 mph - 0.03 in Fog , Snow Heavy Snow
2:32 PM 30.2 °F 25.4 °F 28.4 °F 93% 29.74 in 0.2 mi NW 4.6 mph - 0.05 in Fog , Snow Heavy Snow
2:39 PM 30.2 °F 25.4 °F 28.4 °F 93% 29.74 in 0.2 mi NW 4.6 mph - 0.05 in Fog , Snow Snow
2:45 PM 30.2 °F 24.3 °F 28.4 °F 93% 29.74 in 0.2 mi NNW 5.8 mph - 0.06 in Fog , Snow Snow
2:51 PM 30.2 °F 25.4 °F 28.4 °F 93% 29.74 in 0.5 mi NW 4.6 mph - 0.06 in Fog , Snow Snow
2:53 PM 30.9 °F 25.2 °F 28.9 °F 92% 29.77 in 0.5 mi NW 5.8 mph - 0.06 in Fog , Snow Snow
3:01 PM 30.2 °F 24.3 °F 28.4 °F 93% 29.75 in 1.0 mi NW 5.8 mph - 0.00 in Snow Light Snow
3:12 PM 30.2 °F 23.4 °F 28.4 °F 93% 29.75 in 1.5 mi NW 6.9 mph - 0.00 in Snow Light Snow
3:24 PM 30.2 °F 23.4 °F 28.4 °F 93% 29.76 in 1.8 mi NW 6.9 mph - 0.00 in Snow Light Snow
3:49 PM 30.2 °F 24.3 °F 28.4 °F 93% 29.76 in 2.0 mi NW 5.8 mph - 0.00 in   Overcast
3:53 PM 30.9 °F 25.2 °F 28.0 °F 89% 29.79 in 2.5 mi NW 5.8 mph - 0.00 in   Overcast
4:15 PM 32.0 °F 28.7 °F 28.4 °F 87% 29.77 in 2.5 mi WNW 3.5 mph - N/A   Overcast
4:53 PM 32.0 °F 27.5 °F 28.0 °F 85% 29.80 in 2.5 mi West 4.6 mph - N/A   Overcast
5:53 PM 30.9 °F 27.5 °F 28.0 °F 89% 29.81 in 2.5 mi West 3.5 mph - N/A   Mostly Cloudy
5:59 PM 30.2 °F 26.7 °F 26.6 °F 86% 29.79 in 3.0 mi West 3.5 mph - N/A   Mostly Cloudy
6:16 PM 30.2 °F 24.3 °F 26.6 °F 86% 29.80 in 2.5 mi West 5.8 mph - N/A   Mostly Cloudy
6:27 PM 28.4 °F 22.2 °F 26.6 °F 93% 29.81 in 4.0 mi West 5.8 mph - N/A   Scattered Clouds
6:53 PM 27.0 °F 21.6 °F 24.1 °F 89% 29.85 in 4.0 mi West 4.6 mph - N/A   Clear
7:53 PM 25.0 °F - 23.0 °F 92% 29.88 in 4.0 mi Calm Calm - N/A   Clear
8:23 PM 23.0 °F - 19.4 °F 86% 29.86 in 2.5 mi Calm Calm - N/A   Clear
8:40 PM 24.8 °F - 21.2 °F 86% 29.86 in 3.0 mi Calm Calm - N/A   Clear
8:53 PM 23.0 °F - 19.9 °F 88% 29.89 in 2.5 mi Calm Calm - N/A   Clear
9:08 PM 23.0 °F - 19.4 °F 86% 29.87 in 3.0 mi Calm Calm - N/A   Clear
9:53 PM 24.1 °F 12.0 °F 21.0 °F 88% 29.91 in 3.0 mi WNW 13.8 mph 21.9 mph N/A   Clear
10:53 PM 26.1 °F - 21.9 °F 84% 29.91 in 4.0 mi Calm Calm - N/A   Clear
11:53 PM 25.0 °F 20.7 °F 21.9 °F 88% 29.91 in 4.0 mi SE 3.5 mph - N/A   Clear